Total_Precipitation_Accumulation
0.00 0.00 0.01 0.01 0.01 0.01 0.03 0.06 0.18 0.22 0.15 0.23 0.28 0.44 0.53 0.55 0.50 0.41 0.34 0.31 0.34 0.39 0.51 0.73 1.19 1.85 2.60 3.26 3.38 2.95 2.51 2.23 1.96 1.65 1.17 0.85 0.74 0.71 0.67 0.57 0.51 0.46 0.42 0.43
0.00 0.02 0.01 0.01 0.01 0.03 0.04 0.06 0.17 0.23 0.14 0.16 0.27 0.52 0.72 0.67 0.55 0.42 0.36 0.36 0.42 0.59 0.82 1.29 2.09 2.61 2.61 2.47 2.08 1.69 1.50 1.37 1.10 0.83 0.57 0.46 0.41 0.38 0.36 0.34 0.36 0.34 0.29 0.30
0.01 0.03 0.02 0.01 0.03 0.08 0.09 0.09 0.17 0.23 0.12 0.11 0.27 0.66 0.83 0.75 0.59 0.41 0.32 0.31 0.52 0.84 1.26 1.86 2.26 2.14 1.59 1.09 0.90 0.82 0.76 0.56 0.41 0.37 0.33 0.28 0.25 0.25 0.23 0.22 0.24 0.24 0.21 0.22
0.01 0.02 0.02 0.02 0.04 0.08 0.08 0.05 0.05 0.08 0.12 0.27 0.43 0.86 0.94 0.70 0.65 0.50 0.42 0.36 0.47 0.66 0.88 1.16 1.27 1.01 0.83 0.72 0.64 0.67 0.59 0.37 0.29 0.25 0.21 0.19 0.18 0.20 0.19 0.19 0.19 0.19 0.17 0.18
0.02 0.02 0.02 0.02 0.03 0.03 0.03 0.03 0.03 0.08 0.16 0.31 0.46 0.68 0.78 0.60 0.68 0.51 0.36 0.32 0.32 0.45 0.50 0.47 0.46 0.41 0.39 0.40 0.44 0.52 0.52 0.46 0.37 0.30 0.24 0.21 0.19 0.18 0.19 0.19 0.19 0.20 0.20 0.18
0.03 0.03 0.02 0.01 0.01 0.02 0.03 0.04 0.10 0.17 0.26 0.55 0.59 0.65 0.81 0.73 0.77 0.56 0.37 0.28 0.28 0.41 0.43 0.35 0.27 0.23 0.24 0.26 0.27 0.34 0.45 0.56 0.52 0.44 0.36 0.30 0.24 0.21 0.20 0.19 0.19 0.19 0.18 0.18
0.08 0.06 0.03 0.02 0.02 0.04 0.05 0.06 0.20 0.48 0.74 0.79 0.49 0.54 0.78 0.62 0.57 0.41 0.21 0.15 0.23 0.37 0.45 0.42 0.31 0.23 0.18 0.17 0.15 0.13 0.16 0.27 0.30 0.30 0.31 0.31 0.30 0.26 0.21 0.18 0.15 0.17 0.16 0.16
0.13 0.11 0.05 0.03 0.03 0.05 0.03 0.02 0.07 0.14 0.18 0.28 0.34 0.60 0.76 0.60 0.38 0.17 0.07 0.06 0.15 0.22 0.25 0.25 0.19 0.13 0.08 0.06 0.06 0.04 0.04 0.07 0.08 0.10 0.13 0.18 0.21 0.17 0.15 0.21 0.17 0.17 0.21 0.22
0.04 0.04 0.03 0.03 0.04 0.04 0.02 0.01 0.02 0.03 0.04 0.15 0.37 0.59 0.54 0.46 0.31 0.13 0.07 0.05 0.06 0.08 0.09 0.10 0.10 0.08 0.06 0.04 0.03 0.03 0.02 0.02 0.02 0.03 0.05 0.09 0.15 0.15 0.14 0.16 0.17 0.16 0.22 0.23
0.01 0.02 0.03 0.03 0.03 0.03 0.02 0.01 0.01 0.02 0.05 0.10 0.25 0.51 0.61 0.47 0.32 0.13 0.08 0.07 0.06 0.08 0.07 0.07 0.06 0.06 0.05 0.04 0.04 0.04 0.03 0.02 0.02 0.02 0.03 0.05 0.12 0.15 0.16 0.15 0.17 0.19 0.19 0.19
0.00 0.01 0.03 0.03 0.03 0.04 0.03 0.02 0.02 0.02 0.03 0.06 0.12 0.25 0.25 0.20 0.13 0.09 0.05 0.03 0.04 0.04 0.05 0.04 0.04 0.04 0.04 0.03 0.03 0.03 0.03 0.03 0.02 0.02 0.02 0.02 0.06 0.10 0.14 0.18 0.19 0.20 0.19 0.18
0.00 0.00 0.02 0.04 0.04 0.03 0.03 0.03 0.02 0.03 0.03 0.03 0.06 0.15 0.10 0.10 0.09 0.06 0.02 0.01 0.01 0.01 0.01 0.01 0.02 0.02 0.02 0.03 0.03 0.04 0.04 0.03 0.03 0.02 0.02 0.01 0.01 0.03 0.06 0.11 0.14 0.17 0.17 0.15
0.00 0.00 0.01 0.08 0.13 0.07 0.03 0.03 0.03 0.03 0.04 0.03 0.11 0.20 0.11 0.05 0.04 0.02 0.01 0.00 0.00 0.00 0.00 0.01 0.01 0.02 0.03 0.03 0.03 0.02 0.02 0.02 0.01 0.01 0.01 0.01 0.01 0.01 0.02 0.05 0.08 0.11 0.13 0.15
0.00 0.00 0.01 0.06 0.11 0.07 0.04 0.04 0.05 0.05 0.02 0.02 0.06 0.16 0.07 0.02 0.01 0.00 0.00 0.00 0.00 0.00 0.00 0.00 0.01 0.01 0.01 0.01 0.01 0.00 0.00 0.00 0.00 0.01 0.01 0.01 0.02 0.02 0.02 0.02 0.04 0.06 0.09 0.13
0.00 0.00 0.00 0.00 0.01 0.02 0.03 0.05 0.05 0.02 0.01 0.03 0.04 0.07 0.03 0.01 0.01 0.00 0.00 0.00 0.00 0.00 0.01 0.01 0.01 0.01 0.01 0.02 0.02 0.02 0.03 0.03 0.04 0.05 0.05 0.06 0.06 0.06 0.05 0.05 0.05 0.06 0.09 0.11
0.00 0.00 0.00 0.00 0.01 0.02 0.03 0.06 0.03 0.01 0.00 0.00 0.00 0.01 0.00 0.00 0.01 0.01 0.02 0.03 0.04 0.04 0.04 0.04 0.04 0.03 0.02 0.02 0.02 0.02 0.03 0.03 0.04 0.05 0.05 0.05 0.05 0.05 0.06 0.06 0.06 0.07 0.10 0.15
0.00 0.00 0.00 0.00 0.01 0.02 0.08 0.04 0.01 0.00 0.00 0.00 0.00 0.00 0.00 0.01 0.01 0.02 0.05 0.06 0.05 0.03 0.02 0.01 0.01 0.00 0.00 0.00 0.00 0.00 0.01 0.01 0.02 0.03 0.03 0.03 0.05 0.05 0.07 0.07 0.08 0.10 0.14 0.19
0.00 0.00 0.00 0.00 0.00 0.05 0.07 0.01 0.00 0.00 0.00 0.00 0.00 0.00 0.00 0.00 0.01 0.01 0.01 0.01 0.00 0.00 0.00 0.00 0.00 0.00 0.00 0.00 0.00 0.00 0.00 0.01 0.01 0.02 0.03 0.04 0.06 0.08 0.09 0.13 0.15 0.19 0.23 0.24
0.02 0.01 0.01 0.01 0.00 0.03 0.03 0.02 0.01 0.01 0.01 0.00 0.00 0.00 0.00 0.00 0.00 0.00 0.00 0.00 0.00 0.00 0.00 0.00 0.00 0.00 0.00 0.00 0.00 0.01 0.01 0.01 0.02 0.03 0.05 0.06 0.09 0.11 0.14 0.16 0.22 0.29 0.32 0.31
0.03 0.03 0.02 0.01 0.01 0.03 0.04 0.04 0.02 0.02 0.03 0.01 0.01 0.00 0.00 0.00 0.00 0.00 0.00 0.00 0.00 0.00 0.00 0.00 0.00 0.00 0.00 0.01 0.01 0.02 0.02 0.04 0.05 0.07 0.08 0.10 0.14 0.19 0.21 0.24 0.29 0.33 0.38 0.39
0.03 0.03 0.02 0.01 0.00 0.01 0.02 0.02 0.02 0.04 0.05 0.02 0.01 0.01 0.00 0.00 0.00 0.00 0.00 0.00 0.00 0.00 0.00 0.00 0.00 0.00 0.01 0.01 0.03 0.06 0.07 0.09 0.10 0.11 0.11 0.13 0.17 0.23 0.26 0.32 0.37 0.39 0.41 0.43
0.03 0.03 0.02 0.01 0.03 0.04 0.03 0.03 0.03 0.03 0.02 0.01 0.01 0.00 0.00 0.00 0.00 0.00 0.00 0.00 0.00 0.00 0.00 0.00 0.00 0.00 0.01 0.03 0.07 0.11 0.12 0.12 0.12 0.13 0.14 0.14 0.17 0.19 0.21 0.31 0.36 0.40 0.47 0.49
0.01 0.01 0.01 0.02 0.03 0.03 0.04 0.03 0.02 0.02 0.01 0.00 0.00 0.00 0.00 0.00 0.00 0.00 0.00 0.00 0.00 0.00 0.00 0.00 0.00 0.01 0.02 0.05 0.10 0.15 0.14 0.14 0.15 0.16 0.16 0.17 0.18 0.22 0.28 0.34 0.35 0.36 0.41 0.42
0.01 0.01 0.01 0.01 0.02 0.03 0.04 0.02 0.01 0.00 0.00 0.00 0.00 0.00 0.00 0.00 0.00 0.00 0.00 0.00 0.00 0.00 0.00 0.00 0.02 0.04 0.06 0.07 0.09 0.12 0.13 0.16 0.20 0.21 0.20 0.21 0.23 0.25 0.29 0.37 0.38 0.38 0.38 0.37
0.01 0.02 0.02 0.03 0.03 0.05 0.05 0.03 0.01 0.00 0.00 0.00 0.00 0.00 0.00 0.00 0.00 0.00 0.00 0.00 0.00 0.00 0.01 0.02 0.06 0.10 0.10 0.09 0.10 0.10 0.15 0.22 0.26 0.25 0.24 0.24 0.27 0.29 0.29 0.35 0.39 0.33 0.34 0.30
0.00 0.01 0.01 0.02 0.01 0.02 0.03 0.02 0.00 0.00 0.00 0.00 0.00 0.00 0.00 0.00 0.00 0.00 0.00 0.00 0.00 0.01 0.04 0.08 0.12 0.15 0.14 0.13 0.13 0.14 0.19 0.28 0.33 0.32 0.29 0.28 0.28 0.29 0.31 0.34 0.35 0.28 0.20 0.17